User: anonymous   Login
Location: Bondula
(6.3703°N, 10.6756°W)
Time: 07:16:04
(UTC+00:00)
Language:

CZ-2C R/B - Orbit

View from above orbital plane
View from above orbital plane
View from above satellite
View from above satellite

Ground track
Ground track

The orbit data is extracted from the following two-line orbital elements,

1 36089U 09061B   19349.96769053  .00000056  00000-0  25030-4 0  9998
2 36089  98.1308 324.7803 0083128 119.1724 300.6933 14.49806782533814
Epoch (UTC): 15 December 2019 23:13:28
Eccentricity: 0.0083128
inclination: 98.1308°
perigee height: 667 km
apogee height: 785 km
right ascension of ascending node: 324.7803°
argument of perigee: 119.1724°
revolutions per day: 14.49806782
mean anomaly at epoch: 300.6933°
orbit number at epoch: 53381

The dashed part of the orbit path shows where the satellite is in the earth's shadow,  

DLR